TJS-17 AKM, 63629

Orbit data source: Space-Track

TJS-17 AKM, 63629 is space debris in GEO originally from a launch on Thu, 10 Apr 2025 UTC launched from the Xichang Space Center, China (XSC). Debris objects in space refer to the collection of defunct objects orbiting the Earth. Examples of debris include non-operational satellites, rocket bodies, and fragments generated from explosions, collisions, or faulty payload assembly.

Not visible in the next 10 days
Identifier
63629, 2025-073C
Orbit
GEO
Last TLE update
8 hours ago
Origin
Manufacturer
CAST
Mission
Spacecraft
Bus & Motor
Unknown
Mass
~500 kg wet, ~500 kg dry
Launch date (UTC)
2025-04-10 (3 months ago)
Launch vehicle
Unknown
Launch site
Xichang Space Center, China (XSC)
Object type
Payload
Rocket body
Debris
Shape & HBR
Box, 1 m
Radar Cross Section
1.500 m²

Expand to show TLE details & history

TLE from 8 hours ago
0 TJS-17 AKM
1 63629U 25073C   25183.89525406 -.00000153  00000-0  00000-0 0  9991
2 63629   0.1725  79.0634 0011471  81.9829 198.9880  0.98860985   773
Epoch: 2025-07-02T21:29Z
TLE epoch observation values (Epoch: 2025-07-02T21:29:09.95Z)
Latitude
-0.17423°
Longitude
116.53881°
Altitude
36,232.319 km
Speed
3.057 km/s
True Right ascension
00h 00m 00s
True Declination
0° 10' 27"
Sunlit
Object was in daylight at epoch
Visualization orbit readout
Latitude
0.11036°
Longitude
-132.21858°
Altitude
36,154.723 km
Speed
3.062 km/s
Apparent Right ascension
07h 09m 23s
Apparent Declination
-4° 54' 52"
Sunlit
Object is in daylight
Visualization observer readout
Local Sidereal Time
16:44:55
Azimuth
307.506° NW
Elevation
-42.242°
Doppler factor
1
Orbital elements
Apogee altitude
36,236.678 km
Perigee altitude
36,139.023 km
Semi-major axis
42,565.987 km
Eccentricity
0.00115
Inclination
0.1725°
RAAN
79.0634°
Arg. of periapsis
81.9829°
True anomaly
Unknown
Mean anomaly
198.988°
Eccentric anomaly
Unknown
Mean motion
0.24714 °/min
Orbital period
1,456.64 mins
BSTAR
0
Loading historical data...
63629 neighbors
Loading maneuver chart data...
Loading SW <> Apogee altitude chart data...
Loading historical data...
Loading historical data...
Loading historical data...
Loading historical data...
Loading historical data...
Loading historical data...
Loading historical data...
Other satellites on launch #73 in the year 2025 (2025-04-10 UTC)

TJS-17 AKM Visibility

Observer location: undefined°, undefined°

TJS-17 AKM is likely not visible in the next few days
Span
Click to sort rows by Start time (UTC) header in descending order
Start Az.
Max El. time (UTC)
Max El. Az.
Max El.
End time (UTC)
End Az.
|